Stations météo

Publicité
Istres, France (7647): Température de l'air & dewpoint: 08.11.2018 09:00:00 - 14.11.2018 09:00:00 (CET)Istres, France (7647): Température de l'air 5cm: 08.11.2018 09:00:00 - 14.11.2018 09:00:00 (CET)Istres, France (7647): Vitesse du vent & gusts: 08.11.2018 09:00:00 - 14.11.2018 09:00:00 (CET)Istres, France (7647): Direction du vent: 08.11.2018 09:00:00 - 14.11.2018 09:00:00 (CET)Istres, France (7647): reduced air pressure: 08.11.2018 09:00:00 - 14.11.2018 09:00:00 (CET)Istres, France (7647): visibility: 08.11.2018 09:00:00 - 14.11.2018 09:00:00 (CET)Istres, France (7647): Quantités de précipitations: 08.11.2018 09:00:00 - 14.11.2018 09:00:00 (CET)
Date & Time tt [°C] td [°C] tt 5cm [°C] ff [km/h] ff [knt] fx [km/h] fx [knt] dd ppp [hPa] vv [km] rr [mm]
14.11.2018 09:00:00 15,0 15,0 14,1 4 2 14 8 NE 1027,1 19 0,0
14.11.2018 08:00:00 14,1 14,1 13,7 13 7 21 11 NNE 1026,8 18 0,0
14.11.2018 07:00:00 13,7 13,7 13,4 13 7 17 9 NNE 1026,5 12 0,0
14.11.2018 06:00:00 13,4 13,4 13,0 9 5 14 8 NNE 1026,7 7 0,0
14.11.2018 05:00:00 12,9 12,9 12,3 11 6 19 10 NNE 1026,7 9 0,0
14.11.2018 04:00:00 12,5 12,5 11,5 12 6 19 10 NNE 1026,8 9 0,0
14.11.2018 03:00:00 12,3 12,3 11,5 11 6 17 9 NE 1027,2 8 0,0
14.11.2018 02:00:00 12,4 12,4 11,6 9 5 21 12 NNE 1027,2 8 0,0
14.11.2018 01:00:00 12,8 12,8 11,0 9 5 17 9 NNE 1027,4 8 0,0
14.11.2018 00:00:00 12,9 12,9 11,0 5 3 8 5 NE 1027,6 7 0,0
13.11.2018 23:00:00 14,2 14,2 12,2 4 2 5 3 WNW 1027,6 8 0,0
13.11.2018 22:00:00 14,7 14,7 12,0 0 0 7 4 N 1027,9 7 0,0
13.11.2018 21:00:00 15,2 15,2 13,3 0 0 15 8 N 1027,8 11 0,0
13.11.2018 20:00:00 15,7 15,7 14,0 7 4 14 7 NW 1027,8 14 0,0
13.11.2018 19:00:00 16,0 16,0 12,5 9 5 11 6 NNW 1027,5 15 0,0
13.11.2018 18:00:00 16,9 16,9 12,9 4 2 8 5 SW 1027,2 22 0,0
13.11.2018 17:00:00 18,4 17,6 17,3 7 4 11 6 SSW 1026,9 27 0,0
13.11.2018 16:00:00 21,6 15,2 22,6 3 1 6 3 W 1026,5 43 0,0
13.11.2018 15:00:00 21,6 15,0 24,9 3 2 12 6 SE 1026,6 43 0,0
13.11.2018 14:00:00 21,3 15,2 24,0 6 3 15 8 E 1026,9 20 0,0
13.11.2018 13:00:00 20,6 14,7 21,6 10 5 18 10 E 1027,2 30 0,0
13.11.2018 12:00:00 19,5 16,9 20,2 13 7 19 11 E 1027,5 20 0,0
13.11.2018 11:00:00 18,4 17,2 17,7 11 6 20 11 E 1027,8 32 0,0
13.11.2018 10:00:00 17,4 16,9 17,2 9 5 21 11 E 1027,4 41 0,0
13.11.2018 09:00:00 17,2 16,2 16,7 14 8 25 13 E 1026,9 46 0,0
13.11.2018 08:00:00 17,1 16,1 16,4 14 8 22 12 E 1026,6 50 0,0
13.11.2018 07:00:00 16,9 15,9 16,4 13 7 23 13 ENE 1025,8 57 0,0
13.11.2018 06:00:00 17,0 15,9 16,4 14 7 19 11 E 1025,3 57 0,0
13.11.2018 05:00:00 17,2 15,7 16,6 10 6 18 10 E 1025,1 55 0,0
13.11.2018 04:00:00 17,7 15,1 16,8 13 7 21 12 E 1024,7 56 0,0
13.11.2018 03:00:00 17,3 16,0 16,7 11 6 16 9 E 1024,7 37 0,0
13.11.2018 02:00:00 17,3 16,3 16,7 11 6 18 10 E 1024,6 50 0,0
13.11.2018 01:00:00 17,1 16,5 16,4 13 7 23 12 E 1024,1 47 0,0
13.11.2018 00:00:00 17,2 16,2 16,5 15 8 23 13 E 1023,8 46 0,0
12.11.2018 23:00:00 17,2 15,5 16,6 13 7 18 10 E 1024,0 52 0,0
12.11.2018 22:00:00 17,2 15,0 16,7 14 8 22 12 E 1023,8 55 0,0
12.11.2018 21:00:00 17,2 15,0 16,6 13 7 21 11 E 1023,9 38 0,0
12.11.2018 20:00:00 17,4 14,7 16,5 16 9 29 16 E 1023,4 46 0,0
12.11.2018 19:00:00 17,7 15,0 16,4 21 11 29 16 ESE 1023,1 44 0,0
12.11.2018 18:00:00 17,4 15,4 16,4 18 10 35 19 ESE 1022,5 41 0,0
12.11.2018 17:00:00 18,3 16,1 17,5 22 12 40 22 ESE 1022,0 38 0,0
12.11.2018 16:00:00 18,9 15,6 18,7 23 12 49 26 ESE 1021,8 13 0,0
12.11.2018 15:00:00 19,7 16,2 19,4 32 18 48 26 ESE 1021,8 7 0,0
12.11.2018 14:00:00 19,4 16,2 19,5 29 16 57 31 SE 1022,0 10 0,0
12.11.2018 13:00:00 19,7 15,6 19,7 38 20 56 31 SE 1022,0 19 0,0
12.11.2018 12:00:00 19,1 16,7 19,2 34 19 51 28 SE 1022,4 20 0,0
12.11.2018 11:00:00 18,7 17,4 18,5 37 20 56 31 SE 1022,6 13 0,0
12.11.2018 10:00:00 18,4 17,2 18,0 29 16 52 28 SE 1022,3 20 0,0
12.11.2018 09:00:00 18,1 17,3 17,1 29 16 47 25 SE 1021,9 35 0,0
12.11.2018 08:00:00 17,7 17,4 17,0 31 17 47 26 SE 1021,1 35 0,0
12.11.2018 07:00:00 17,9 17,7 17,3 29 15 51 28 SE 1020,3 36 0,0
12.11.2018 06:00:00 17,7 17,7 17,2 33 18 51 27 SE 1019,8 32 0,0
12.11.2018 05:00:00 18,1 18,1 17,0 34 18 47 26 SE 1019,1 20 0,0
12.11.2018 04:00:00 18,1 18,1 17,0 23 13 49 26 SE 1019,6 20 0,0
12.11.2018 03:00:00 17,9 17,9 16,2 32 17 44 24 SE 1019,6 19 0,0
12.11.2018 02:00:00 17,4 17,4 16,1 23 13 47 26 ESE 1019,2 20 0,4
12.11.2018 01:00:00 18,5 17,8 17,9 30 16 48 26 SE 1019,3 31 0,0
12.11.2018 00:00:00 18,4 17,2 17,5 28 15 43 23 SE 1019,1 33 0,0
11.11.2018 23:00:00 18,3 17,3 17,2 27 15 45 24 SE 1019,0 33 0,0
11.11.2018 22:00:00 17,8 17,8 17,2 21 12 42 23 ESE 1019,0 20 0,0
11.11.2018 21:00:00 18,2 18,2 17,4 26 14 37 20 ESE 1018,5 20 0,0
11.11.2018 20:00:00 18,1 18,1 17,4 26 14 44 24 ESE 1018,0 20 0,0
11.11.2018 19:00:00 18,3 18,3 17,3 24 13 42 23 ESE 1017,6 20 0,0
11.11.2018 18:00:00 18,0 18,0 17,1 26 14 44 24 ESE 1017,1 31 0,0
11.11.2018 17:00:00 17,9 16,8 17,1 27 14 45 24 ESE 1016,8 44 0,0
11.11.2018 16:00:00 18,4 16,7 18,2 33 18 51 28 ESE 1016,7 23 0,0
11.11.2018 15:00:00 18,8 16,9 18,9 35 19 61 33 ESE 1016,3 9 0,0
11.11.2018 14:00:00 19,3 17,8 18,3 34 19 48 26 SE 1016,5 6 0,0
11.11.2018 13:00:00 18,5 17,3 18,4 31 17 47 26 ESE 1016,1 18 0,0
11.11.2018 12:00:00 18,9 17,2 18,8 26 14 45 25 ESE 1016,2 15 0,0
11.11.2018 11:00:00 18,3 17,1 18,0 30 16 44 24 ESE 1016,2 16 0,0
11.11.2018 10:00:00 17,9 17,4 16,4 28 15 42 23 ESE 1015,7 26 0,0
11.11.2018 09:00:00 17,7 17,1 17,0 31 17 47 26 SE 1015,0 35 0,0
11.11.2018 08:00:00 17,4 17,4 16,6 24 13 39 21 SE 1014,3 37 0,0
11.11.2018 07:00:00 17,4 17,4 15,6 22 12 37 20 SE 1013,4 32 0,0
11.11.2018 06:00:00 17,5 17,2 16,1 26 14 40 22 SE 1013,3 20 0,0
11.11.2018 05:00:00 17,5 17,3 16,9 27 15 48 26 SE 1013,0 30 0,0
11.11.2018 04:00:00 17,5 16,5 16,9 27 15 42 23 SE 1013,2 41 0,0
11.11.2018 03:00:00 17,4 16,6 16,7 28 15 44 24 SE 1013,2 42 0,0
11.11.2018 02:00:00 17,5 16,0 16,2 31 17 44 24 ESE 1012,8 42 0,0
11.11.2018 01:00:00 17,2 16,1 16,4 25 13 44 24 ESE 1013,2 47 0,0
11.11.2018 00:00:00 17,0 16,0 16,2 23 12 40 22 ESE 1013,6 50 0,0
10.11.2018 23:00:00 16,9 15,4 16,3 24 13 35 19 ESE 1013,4 54 0,0
10.11.2018 22:00:00 17,0 14,8 16,3 21 12 33 18 SE 1013,6 59 0,0
10.11.2018 21:00:00 16,8 14,6 16,3 20 11 32 17 ESE 1013,4 60 0,0
10.11.2018 20:00:00 16,9 14,0 15,9 19 10 40 22 SE 1013,3 60 0,0
10.11.2018 19:00:00 16,6 14,6 15,8 31 17 43 23 ESE 1011,5 60 0,0
10.11.2018 18:00:00 16,7 15,2 16,2 18 10 29 16 SE 1012,8 60 0,0
10.11.2018 17:00:00 16,9 14,9 16,2 22 12 35 19 SE 1012,7 60 0,0
10.11.2018 16:00:00 17,3 15,6 17,2 25 14 46 25 SE 1012,4 53 0,0
10.11.2018 15:00:00 18,3 15,5 17,6 31 17 46 25 SE 1012,1 37 0,0
10.11.2018 14:00:00 17,8 15,1 17,6 30 16 44 24 SE 1011,8 30 0,0
10.11.2018 13:00:00 17,5 15,7 17,6 27 15 41 22 SE 1012,5 27 0,0
10.11.2018 12:00:00 17,4 16,1 17,4 21 12 34 18 SE 1013,2 57 0,0
10.11.2018 11:00:00 17,2 16,2 17,4 20 11 27 14 SE 1013,5 38 0,0
10.11.2018 10:00:00 16,6 16,6 16,3 15 8 21 12 ESE 1013,8 35 0,0
10.11.2018 09:00:00 15,7 15,7 15,0 9 5 15 8 E 1014,0 55 0,0
10.11.2018 08:00:00 14,5 14,5 13,3 10 5 21 11 E 1013,5 44 0,0
10.11.2018 07:00:00 14,7 14,7 13,1 16 8 21 12 E 1013,1 55 0,0
10.11.2018 06:00:00 14,3 14,3 12,8 11 6 14 8 E 1013,3 51 0,0
10.11.2018 05:00:00 14,3 14,3 12,7 9 5 14 8 ESE 1013,5 49 0,0
10.11.2018 04:00:00 14,5 14,5 13,4 11 6 20 11 ESE 1013,4 49 0,0
10.11.2018 03:00:00 15,1 15,1 14,2 15 8 22 12 E 1013,6 47 0,0
10.11.2018 02:00:00 15,2 15,2 14,2 12 7 24 13 E 1013,6 41 0,0
10.11.2018 01:00:00 16,2 16,2 14,8 13 7 22 12 ESE 1014,1 53 0,0
10.11.2018 00:00:00 15,6 15,6 14,6 13 7 34 18 ESE 1014,0 45 0,0
09.11.2018 23:00:00 16,0 16,0 14,4 22 12 42 23 E 1013,6 27 0,2
09.11.2018 22:00:00 16,2 16,2 14,2 20 11 31 17 E 1013,7 29 0,0
09.11.2018 21:00:00 15,2 15,2 12,6 11 6 21 11 E 1013,5 36 0,0
09.11.2018 20:00:00 15,5 15,3 14,5 8 4 16 9 E 1013,8 39 0,0
09.11.2018 19:00:00 16,0 15,4 14,7 9 5 17 9 NE 1013,2 45 0,0
09.11.2018 18:00:00 16,5 15,4 15,6 13 7 24 13 E 1012,5 60 0,0
09.11.2018 17:00:00 16,5 15,4 16,0 13 7 39 21 E 1012,4 54 0,0
09.11.2018 16:00:00 17,8 15,1 16,6 23 12 37 20 ESE 1012,8 23 0,0
09.11.2018 15:00:00 17,7 15,9 17,5 17 9 25 14 E 1013,1 54 0,0
09.11.2018 14:00:00 17,4 17,2 15,3 13 7 26 14 E 1012,8 57 0,2
09.11.2018 13:00:00 17,5 16,5 16,4 15 8 26 14 E 1013,4 48 0,0
09.11.2018 12:00:00 17,0 17,0 15,1 19 11 34 19 E 1013,6 43 0,8
09.11.2018 11:00:00 16,6 16,6 14,9 18 10 29 16 E 1014,1 35 0,2
09.11.2018 10:00:00 16,8 15,5 16,2 19 11 36 19 E 1013,9 44 0,0
09.11.2018 09:00:00 16,1 15,3 15,2 23 13 35 19 E 1014,1 53 0,0
09.11.2018 08:00:00 15,6 15,3 14,5 20 11 30 16 E 1014,4 57 0,0
09.11.2018 07:00:00 15,0 15,0 14,4 18 10 31 17 E 1014,4 58 0,0
09.11.2018 06:00:00 15,4 14,6 13,5 19 10 27 15 E 1014,4 59 0,0
09.11.2018 05:00:00 15,7 14,2 14,1 18 10 31 17 ESE 1014,8 42 0,0
09.11.2018 04:00:00 16,0 13,7 14,9 23 12 32 18 ESE 1015,1 60 0,0
09.11.2018 03:00:00 15,6 14,8 14,1 20 11 31 17 ESE 1015,4 41 0,0
09.11.2018 02:00:00 15,8 15,2 14,4 21 11 32 18 ESE 1015,8 46 0,0
09.11.2018 01:00:00 16,0 15,2 15,4 18 10 32 17 ESE 1016,4 48 0,0
09.11.2018 00:00:00 16,1 15,5 14,8 20 11 29 16 ESE 1016,9 35 0,0
08.11.2018 23:00:00 15,7 14,9 14,7 16 9 24 13 ESE 1017,2 45 0,0
08.11.2018 22:00:00 15,7 15,2 15,0 18 10 25 14 E 1016,8 43 0,0
08.11.2018 21:00:00 15,5 15,5 14,8 10 5 29 16 E 1017,2 39 0,0
08.11.2018 20:00:00 16,4 16,4 15,4 20 11 31 17 ESE 1017,1 47 0,0
08.11.2018 19:00:00 16,2 16,2 15,3 16 9 24 13 SE 1017,5 43 0,0
08.11.2018 18:00:00 16,1 16,1 15,2 12 6 16 9 SE 1017,5 41 0,0
08.11.2018 17:00:00 16,6 16,6 15,9 11 6 21 11 SE 1017,2 55 0,0
08.11.2018 16:00:00 17,7 15,1 17,7 13 7 18 10 SE 1017,6 58 0,0
08.11.2018 15:00:00 17,5 15,8 19,3 12 6 24 13 SE 1018,1 55 0,0
08.11.2018 14:00:00 17,6 15,4 20,1 18 10 27 15 SSE 1018,6 54 0,0
08.11.2018 13:00:00 18,1 15,4 18,6 16 9 24 13 SSE 1019,0 38 0,0
08.11.2018 12:00:00 16,9 16,9 17,8 12 6 19 11 SSE 1019,6 42 0,0
08.11.2018 11:00:00 16,0 16,0 14,8 14 8 21 12 E 1019,8 31 0,0
08.11.2018 10:00:00 14,4 14,4 13,0 11 6 18 10 E 1019,6 39 0,0
08.11.2018 09:00:00 12,3 12,3 9,8 8 4 13 7 NNE 1019,8 39 0,0

tt = Température de l'air
td = dewpoint
tt 5cm = Température de l'air 5cm
ff = Vitesse du vent
fx = gusts
dd = Direction du vent
ppp = reduced air pressure
vv = visibility
rr = Quantités de précipitations

stations d'obs. à proximité